Time,TemperatureF,DewpointF,PressureIn,WindDirection,WindDirectionDegrees,WindSpeedMPH,WindSpeedGustMPH,Humidity,HourlyPrecipIn,Conditions,Clouds,dailyrainin,SoftwareType,DateUTC
2014-02-27 00:02:00,10.4,3.5,29.94,NW,322,23.0,23.0,73,0.00,,,0.00,Wunderground v.1.15,2014-02-27 06:02:00,
2014-02-27 00:09:00,10.0,3.4,29.94,NNW,329,20.0,23.0,74,0.00,,,0.00,Wunderground v.1.15,2014-02-27 06:09:00,
2014-02-27 00:14:00,9.8,3.2,29.94,NNW,333,23.0,23.0,74,0.00,,,0.00,Wunderground v.1.15,2014-02-27 06:14:00,
2014-02-27 00:20:00,9.5,2.9,29.95,NW,322,25.0,28.0,74,0.00,,,0.00,Wunderground v.1.15,2014-02-27 06:20:00,
2014-02-27 00:23:00,9.4,2.8,29.95,NNW,328,23.0,23.0,74,0.00,,,0.00,Wunderground v.1.15,2014-02-27 06:23:00,
2014-02-27 00:28:00,9.2,2.6,29.95,NW,319,18.0,24.0,74,0.00,,,0.00,Wunderground v.1.15,2014-02-27 06:28:00,
2014-02-27 00:34:00,8.9,2.3,29.96,NW,318,16.0,20.0,74,0.00,,,0.00,Wunderground v.1.15,2014-02-27 06:34:00,
2014-02-27 00:40:00,8.7,2.4,29.96,NW,313,16.0,21.0,75,0.00,,,0.00,Wunderground v.1.15,2014-02-27 06:40:00,
2014-02-27 00:45:00,8.5,2.2,29.96,NW,316,18.0,19.0,75,0.00,,,0.00,Wunderground v.1.15,2014-02-27 06:45:00,
2014-02-27 00:52:00,8.3,2.0,29.96,NW,321,18.0,18.0,75,0.00,,,0.00,Wunderground v.1.15,2014-02-27 06:52:00,
2014-02-27 01:02:00,8.1,1.8,29.96,NW,321,19.0,19.0,75,0.00,,,0.00,Wunderground v.1.15,2014-02-27 07:02:00,
2014-02-27 01:14:00,7.7,1.4,29.96,NW,317,19.0,20.0,75,0.00,,,0.00,Wunderground v.1.15,2014-02-27 07:14:00,
2014-02-27 01:19:00,7.6,1.3,29.97,NW,318,17.0,24.0,75,0.00,,,0.00,Wunderground v.1.15,2014-02-27 07:19:00,
2014-02-27 01:27:00,7.3,1.3,29.97,NW,315,17.0,20.0,76,0.00,,,0.00,Wunderground v.1.15,2014-02-27 07:27:00,
2014-02-27 01:32:00,7.1,1.1,29.98,NW,321,21.0,21.0,76,0.00,,,0.00,Wunderground v.1.15,2014-02-27 07:32:00,
2014-02-27 01:37:00,6.8,0.8,29.98,NW,317,16.0,21.0,76,0.00,,,0.00,Wunderground v.1.15,2014-02-27 07:37:00,
2014-02-27 01:43:00,6.7,1.0,29.98,NW,319,17.0,17.0,77,0.00,,,0.00,Wunderground v.1.15,2014-02-27 07:43:00,
2014-02-27 01:48:00,6.5,0.5,29.98,NNW,328,18.0,20.0,76,0.00,,,0.00,Wunderground v.1.15,2014-02-27 07:48:00,
2014-02-27 01:54:00,6.3,0.3,29.98,NW,320,19.0,19.0,76,0.00,,,0.00,Wunderground v.1.15,2014-02-27 07:54:00,
2014-02-27 01:59:00,6.2,0.3,29.98,NW,325,20.0,23.0,76,0.00,,,0.00,Wunderground v.1.15,2014-02-27 07:59:00,
2014-02-27 02:05:00,6.1,0.2,29.99,NNW,333,24.0,25.0,76,0.00,,,0.00,Wunderground v.1.15,2014-02-27 08:05:00,
2014-02-27 02:10:00,5.8,-0.7,29.99,NW,320,23.0,25.0,74,0.00,,,0.00,Wunderground v.1.15,2014-02-27 08:10:00,
2014-02-27 02:15:00,5.3,-1.2,30.00,NW,325,24.0,27.0,74,0.00,,,0.00,Wunderground v.1.15,2014-02-27 08:15:00,
2014-02-27 02:20:00,5.0,-1.5,30.00,NW,326,22.0,27.0,74,0.00,,,0.00,Wunderground v.1.15,2014-02-27 08:20:00,
2014-02-27 02:25:00,4.5,-1.7,30.00,NW,320,19.0,26.0,75,0.00,,,0.00,Wunderground v.1.15,2014-02-27 08:25:00,
2014-02-27 02:30:00,4.3,-2.2,30.01,NW,319,21.0,26.0,74,0.00,,,0.00,Wunderground v.1.15,2014-02-27 08:30:00,
2014-02-27 02:36:00,4.1,-2.4,30.01,NW,319,19.0,20.0,74,0.00,,,0.00,Wunderground v.1.15,2014-02-27 08:36:00,
2014-02-27 02:42:00,3.7,-2.5,30.01,NNW,332,21.0,21.0,75,0.00,,,0.00,Wunderground v.1.15,2014-02-27 08:42:00,
2014-02-27 02:47:00,3.5,-2.7,30.02,NW,311,16.0,23.0,75,0.00,,,0.00,Wunderground v.1.15,2014-02-27 08:47:00,
2014-02-27 02:54:00,3.2,-3.2,30.02,NNW,331,20.0,20.0,74,0.00,,,0.00,Wunderground v.1.15,2014-02-27 08:54:00,
2014-02-27 02:59:00,3.0,-3.4,30.02,NW,325,18.0,23.0,74,0.00,,,0.00,Wunderground v.1.15,2014-02-27 08:59:00,
2014-02-27 03:04:00,2.8,-3.9,30.02,NW,324,24.0,24.0,73,0.00,,,0.00,Wunderground v.1.15,2014-02-27 09:04:00,
2014-02-27 03:10:00,2.5,-4.8,30.03,NW,325,21.0,25.0,71,0.00,,,0.00,Wunderground v.1.15,2014-02-27 09:10:00,
2014-02-27 03:15:00,2.3,-5.3,30.03,NNW,331,22.0,24.0,70,0.00,,,0.00,Wunderground v.1.15,2014-02-27 09:15:00,
2014-02-27 03:20:00,2.0,-5.5,30.03,NNW,329,20.0,27.0,70,0.00,,,0.00,Wunderground v.1.15,2014-02-27 09:20:00,
2014-02-27 03:25:00,1.7,-5.5,30.03,NNW,327,18.0,22.0,71,0.00,,,0.00,Wunderground v.1.15,2014-02-27 09:25:00,
2014-02-27 03:32:00,1.6,-5.6,30.04,NNW,329,19.0,21.0,71,0.00,,,0.00,Wunderground v.1.15,2014-02-27 09:32:00,
2014-02-27 03:38:00,1.2,-5.7,30.04,NNW,333,16.0,22.0,72,0.00,,,0.00,Wunderground v.1.15,2014-02-27 09:38:00,
2014-02-27 03:43:00,1.0,-5.9,30.05,NNW,331,13.0,18.0,72,0.00,,,0.00,Wunderground v.1.15,2014-02-27 09:43:00,
2014-02-27 03:48:00,0.8,-6.1,30.05,NNW,327,18.0,23.0,72,0.00,,,0.00,Wunderground v.1.15,2014-02-27 09:48:00,
2014-02-27 03:53:00,0.5,-6.7,30.05,NNW,327,18.0,19.0,71,0.00,,,0.00,Wunderground v.1.15,2014-02-27 09:53:00,
2014-02-27 03:58:00,0.2,-7.0,30.06,NW,323,21.0,21.0,71,0.00,,,0.00,Wunderground v.1.15,2014-02-27 09:58:00,
2014-02-27 04:05:00,0.0,-7.2,30.06,NNW,327,16.0,16.0,71,0.00,,,0.00,Wunderground v.1.15,2014-02-27 10:05:00,
2014-02-27 04:10:00,-0.1,-7.3,30.06,NNW,329,19.0,21.0,71,0.00,,,0.00,Wunderground v.1.15,2014-02-27 10:10:00,
2014-02-27 04:18:00,-0.3,-7.5,30.07,NNW,329,20.0,23.0,71,0.00,,,0.00,Wunderground v.1.15,2014-02-27 10:18:00,
2014-02-27 04:23:00,-0.4,-7.6,30.07,NNW,327,14.0,19.0,71,0.00,,,0.00,Wunderground v.1.15,2014-02-27 10:23:00,
2014-02-27 04:28:00,-0.6,-7.8,30.08,NNW,331,16.0,19.0,71,0.00,,,0.00,Wunderground v.1.15,2014-02-27 10:28:00,
2014-02-27 04:34:00,-0.7,-7.9,30.08,NNW,331,13.0,16.0,71,0.00,,,0.00,Wunderground v.1.15,2014-02-27 10:34:00,
2014-02-27 04:39:00,-0.9,-8.0,30.09,NNW,333,14.0,19.0,71,0.00,,,0.00,Wunderground v.1.15,2014-02-27 10:39:00,
2014-02-27 04:45:00,-1.1,-8.0,30.09,NNW,334,16.0,18.0,72,0.00,,,0.00,Wunderground v.1.15,2014-02-27 10:45:00,
2014-02-27 04:50:00,-1.2,-8.0,30.09,NNW,330,16.0,20.0,72,0.00,,,0.00,Wunderground v.1.15,2014-02-27 10:50:00,
2014-02-27 04:55:00,-1.4,-8.2,30.09,NNW,334,15.0,17.0,72,0.00,,,0.00,Wunderground v.1.15,2014-02-27 10:55:00,
2014-02-27 05:00:00,-1.4,-8.0,30.10,NNW,327,16.0,16.0,73,0.00,,,0.00,Wunderground v.1.15,2014-02-27 11:00:00,
2014-02-27 05:07:00,-1.7,-8.3,30.10,NW,318,13.0,18.0,73,0.00,,,0.00,Wunderground v.1.15,2014-02-27 11:07:00,
2014-02-27 05:13:00,-1.9,-8.4,30.11,NW,325,14.0,14.0,73,0.00,,,0.00,Wunderground v.1.15,2014-02-27 11:13:00,
2014-02-27 05:18:00,-2.1,-8.6,30.11,NNW,329,16.0,17.0,73,0.00,,,0.00,Wunderground v.1.15,2014-02-27 11:18:00,
2014-02-27 05:24:00,-2.3,-8.8,30.11,NNW,327,18.0,19.0,73,0.00,,,0.00,Wunderground v.1.15,2014-02-27 11:24:00,
2014-02-27 05:29:00,-2.5,-9.0,30.11,NW,319,16.0,19.0,73,0.00,,,0.00,Wunderground v.1.15,2014-02-27 11:29:00,
2014-02-27 05:35:00,-2.6,-9.1,30.12,NW,321,15.0,17.0,73,0.00,,,0.00,Wunderground v.1.15,2014-02-27 11:35:00,
2014-02-27 05:40:00,-2.8,-9.3,30.12,NNW,329,14.0,18.0,73,0.00,,,0.00,Wunderground v.1.15,2014-02-27 11:40:00,
2014-02-27 05:45:00,-3.0,-9.2,30.12,NNW,328,15.0,17.0,74,0.00,,,0.00,Wunderground v.1.15,2014-02-27 11:45:00,
2014-02-27 05:50:00,-3.1,-9.3,30.13,NNW,336,15.0,18.0,74,0.00,,,0.00,Wunderground v.1.15,2014-02-27 11:50:00,
2014-02-27 05:59:00,-3.4,-9.6,30.13,NNW,340,11.0,16.0,74,0.00,,,0.00,Wunderground v.1.15,2014-02-27 11:59:00,
2014-02-27 06:10:00,-3.7,-9.9,30.13,NNW,331,13.0,14.0,74,0.00,,,0.00,Wunderground v.1.15,2014-02-27 12:10:00,
2014-02-27 06:16:00,-3.8,-10.0,30.15,NNW,334,12.0,15.0,74,0.00,,,0.00,Wunderground v.1.15,2014-02-27 12:16:00,
2014-02-27 06:28:00,-4.0,-10.2,30.15,NNW,331,13.0,14.0,74,0.00,,,0.00,Wunderground v.1.15,2014-02-27 12:28:00,
2014-02-27 06:33:00,-4.0,-10.2,30.15,NNW,329,11.0,12.0,74,0.00,,,0.00,Wunderground v.1.15,2014-02-27 12:33:00,
2014-02-27 06:38:00,-4.0,-10.2,30.15,NW,326,14.0,14.0,74,0.00,,,0.00,Wunderground v.1.15,2014-02-27 12:38:00,
2014-02-27 06:46:00,-4.2,-10.4,30.16,NW,321,15.0,15.0,74,0.00,,,0.00,Wunderground v.1.15,2014-02-27 12:46:00,
2014-02-27 06:54:00,-4.4,-10.6,30.16,NNW,328,10.0,14.0,74,0.00,,,0.00,Wunderground v.1.15,2014-02-27 12:54:00,
2014-02-27 07:00:00,-4.5,-10.7,30.16,NNW,327,12.0,13.0,74,0.00,,,0.00,Wunderground v.1.15,2014-02-27 13:00:00,
2014-02-27 07:09:00,-4.7,-10.9,30.17,NNW,329,12.0,12.0,74,0.00,,,0.00,Wunderground v.1.15,2014-02-27 13:09:00,
2014-02-27 07:14:00,-4.8,-11.0,30.17,NNW,338,13.0,13.0,74,0.00,,,0.00,Wunderground v.1.15,2014-02-27 13:14:00,
2014-02-27 07:19:00,-4.9,-10.8,30.17,NNW,329,9.0,14.0,75,0.00,,,0.00,Wunderground v.1.15,2014-02-27 13:19:00,
2014-02-27 07:25:00,-4.8,-10.7,30.18,NNW,331,11.0,12.0,75,0.00,,,0.00,Wunderground v.1.15,2014-02-27 13:25:00,
2014-02-27 07:33:00,-4.8,-10.7,30.19,NNW,340,12.0,12.0,75,0.00,,,0.00,Wunderground v.1.15,2014-02-27 13:33:00,
2014-02-27 07:38:00,-4.8,-11.0,30.19,NNW,327,12.0,15.0,74,0.00,,,0.00,Wunderground v.1.15,2014-02-27 13:38:00,
2014-02-27 07:43:00,-4.8,-11.0,30.19,NW,325,12.0,13.0,74,0.00,,,0.00,Wunderground v.1.15,2014-02-27 13:43:00,
2014-02-27 07:50:00,-4.7,-10.9,30.20,NNW,331,14.0,16.0,74,0.00,,,0.00,Wunderground v.1.15,2014-02-27 13:50:00,
2014-02-27 07:55:00,-4.6,-10.8,30.20,NNW,327,13.0,16.0,74,0.00,,,0.00,Wunderground v.1.15,2014-02-27 13:55:00,
2014-02-27 08:00:00,-4.6,-10.8,30.20,NNW,330,14.0,15.0,74,0.00,,,0.00,Wunderground v.1.15,2014-02-27 14:00:00,
2014-02-27 08:05:00,-4.5,-10.7,30.21,NW,323,16.0,16.0,74,0.00,,,0.00,Wunderground v.1.15,2014-02-27 14:05:00,
2014-02-27 08:10:00,-4.5,-10.7,30.21,NW,324,15.0,18.0,74,0.00,,,0.00,Wunderground v.1.15,2014-02-27 14:10:00,
2014-02-27 08:15:00,-4.4,-10.6,30.21,NNW,334,15.0,18.0,74,0.00,,,0.00,Wunderground v.1.15,2014-02-27 14:15:00,
2014-02-27 08:20:00,-4.3,-10.8,30.22,NNW,335,15.0,20.0,73,0.00,,,0.00,Wunderground v.1.15,2014-02-27 14:20:00,
2014-02-27 08:25:00,-4.3,-10.8,30.22,NNW,331,14.0,17.0,73,0.00,,,0.00,Wunderground v.1.15,2014-02-27 14:25:00,
2014-02-27 08:31:00,-4.1,-10.6,30.23,NW,325,10.0,17.0,73,0.00,,,0.00,Wunderground v.1.15,2014-02-27 14:31:00,
2014-02-27 08:36:00,-4.1,-10.6,30.23,NW,323,14.0,16.0,73,0.00,,,0.00,Wunderground v.1.15,2014-02-27 14:36:00,
2014-02-27 08:41:00,-4.0,-10.5,30.23,NNW,338,12.0,16.0,73,0.00,,,0.00,Wunderground v.1.15,2014-02-27 14:41:00,
2014-02-27 08:46:00,-3.8,-10.3,30.24,NNW,331,15.0,15.0,73,0.00,,,0.00,Wunderground v.1.15,2014-02-27 14:46:00,
2014-02-27 08:52:00,-3.8,-10.6,30.24,NW,320,13.0,14.0,72,0.00,,,0.00,Wunderground v.1.15,2014-02-27 14:52:00,
2014-02-27 08:57:00,-3.6,-10.4,30.24,NNW,336,14.0,16.0,72,0.00,,,0.00,Wunderground v.1.15,2014-02-27 14:57:00,
2014-02-27 09:02:00,-3.6,-10.9,30.24,NNW,342,14.0,14.0,70,0.00,,,0.00,Wunderground v.1.15,2014-02-27 15:02:00,
2014-02-27 09:07:00,-3.5,-10.6,30.24,North,350,16.0,17.0,71,0.00,,,0.00,Wunderground v.1.15,2014-02-27 15:07:00,
2014-02-27 09:12:00,-3.5,-10.8,30.25,NNW,342,13.0,16.0,70,0.00,,,0.00,Wunderground v.1.15,2014-02-27 15:12:00,
2014-02-27 09:17:00,-3.4,-10.5,30.25,NNW,330,16.0,16.0,71,0.00,,,0.00,Wunderground v.1.15,2014-02-27 15:17:00,
2014-02-27 09:22:00,-3.5,-10.8,30.25,NNW,338,14.0,16.0,70,0.00,,,0.00,Wunderground v.1.15,2014-02-27 15:22:00,
2014-02-27 09:27:00,-3.4,-10.5,30.25,NNW,338,13.0,16.0,71,0.00,,,0.00,Wunderground v.1.15,2014-02-27 15:27:00,
2014-02-27 09:32:00,-3.2,-10.3,30.25,NNW,341,13.0,13.0,71,0.00,,,0.00,Wunderground v.1.15,2014-02-27 15:32:00,
2014-02-27 09:37:00,-3.1,-10.2,30.26,NNW,342,10.0,15.0,71,0.00,,,0.00,Wunderground v.1.15,2014-02-27 15:37:00,
2014-02-27 09:43:00,-3.1,-10.5,30.25,NNW,336,11.0,14.0,70,0.00,,,0.00,Wunderground v.1.15,2014-02-27 15:43:00,
2014-02-27 09:48:00,-2.9,-10.0,30.25,NNW,343,13.0,15.0,71,0.00,,,0.00,Wunderground v.1.15,2014-02-27 15:48:00,
2014-02-27 09:53:00,-2.7,-9.8,30.26,NNW,328,11.0,12.0,71,0.00,,,0.00,Wunderground v.1.15,2014-02-27 15:53:00,
2014-02-27 09:58:00,-2.6,-10.6,30.25,NNW,348,15.0,18.0,68,0.00,,,0.00,Wunderground v.1.15,2014-02-27 15:58:00,
2014-02-27 10:03:00,-2.5,-10.8,30.26,NNW,346,11.0,14.0,67,0.00,,,0.00,Wunderground v.1.15,2014-02-27 16:03:00,
2014-02-27 10:08:00,-2.5,-11.1,30.26,NNW,339,12.0,14.0,66,0.00,,,0.00,Wunderground v.1.15,2014-02-27 16:08:00,
2014-02-27 10:13:00,-2.5,-11.4,30.26,NNW,348,11.0,13.0,65,0.00,,,0.00,Wunderground v.1.15,2014-02-27 16:13:00,
2014-02-27 10:18:00,-2.4,-11.0,30.26,NNW,344,10.0,15.0,66,0.00,,,0.00,Wunderground v.1.15,2014-02-27 16:18:00,
2014-02-27 10:23:00,-2.3,-10.9,30.27,NNW,346,10.0,11.0,66,0.00,,,0.00,Wunderground v.1.15,2014-02-27 16:23:00,
2014-02-27 10:28:00,-2.3,-11.2,30.27,NNW,341,9.0,14.0,65,0.00,,,0.00,Wunderground v.1.15,2014-02-27 16:28:00,
2014-02-27 10:33:00,-2.3,-10.9,30.26,NNW,336,10.0,11.0,66,0.00,,,0.00,Wunderground v.1.15,2014-02-27 16:33:00,
2014-02-27 10:38:00,-2.2,-10.8,30.26,North,360,9.0,13.0,66,0.00,,,0.00,Wunderground v.1.15,2014-02-27 16:38:00,
2014-02-27 10:43:00,-2.1,-11.0,30.26,North,355,8.0,10.0,65,0.00,,,0.00,Wunderground v.1.15,2014-02-27 16:43:00,
2014-02-27 10:48:00,-2.1,-10.7,30.26,North,355,8.0,13.0,66,0.00,,,0.00,Wunderground v.1.15,2014-02-27 16:48:00,
2014-02-27 10:53:00,-2.0,-10.6,30.26,NNW,335,9.0,10.0,66,0.00,,,0.00,Wunderground v.1.15,2014-02-27 16:53:00,
2014-02-27 10:58:00,-2.0,-10.6,30.26,NNW,343,10.0,12.0,66,0.00,,,0.00,Wunderground v.1.15,2014-02-27 16:58:00,
2014-02-27 11:03:00,-1.9,-10.5,30.26,NNW,346,7.0,7.0,66,0.00,,,0.00,Wunderground v.1.15,2014-02-27 17:03:00,
2014-02-27 11:08:00,-1.8,-10.4,30.26,NNW,333,10.0,12.0,66,0.00,,,0.00,Wunderground v.1.15,2014-02-27 17:08:00,
2014-02-27 11:13:00,-1.6,-10.2,30.26,NNW,333,12.0,12.0,66,0.00,,,0.00,Wunderground v.1.15,2014-02-27 17:13:00,
2014-02-27 11:18:00,-1.6,-10.5,30.25,NNW,337,10.0,12.0,65,0.00,,,0.00,Wunderground v.1.15,2014-02-27 17:18:00,
2014-02-27 11:23:00,-1.4,-10.0,30.25,NNW,336,9.0,11.0,66,0.00,,,0.00,Wunderground v.1.15,2014-02-27 17:23:00,
2014-02-27 11:28:00,-1.3,-10.2,30.25,NNW,345,11.0,15.0,65,0.00,,,0.00,Wunderground v.1.15,2014-02-27 17:28:00,
2014-02-27 11:33:00,-1.3,-10.2,30.25,NNW,344,9.0,10.0,65,0.00,,,0.00,Wunderground v.1.15,2014-02-27 17:33:00,
2014-02-27 11:38:00,-1.0,-9.9,30.25,North,355,11.0,13.0,65,0.00,,,0.00,Wunderground v.1.15,2014-02-27 17:38:00,
2014-02-27 11:43:00,-0.9,-9.8,30.24,North,349,10.0,13.0,65,0.00,,,0.00,Wunderground v.1.15,2014-02-27 17:43:00,
2014-02-27 11:48:00,-0.7,-9.0,30.25,NNW,344,7.0,13.0,67,0.00,,,0.00,Wunderground v.1.15,2014-02-27 17:48:00,
2014-02-27 11:53:00,-0.7,-9.7,30.25,NNW,336,8.0,12.0,65,0.00,,,0.00,Wunderground v.1.15,2014-02-27 17:53:00,
2014-02-27 11:58:00,-0.7,-10.0,30.25,North,5,10.0,12.0,64,0.00,,,0.00,Wunderground v.1.15,2014-02-27 17:58:00,
2014-02-27 12:04:00,-0.5,-10.1,30.25,North,350,8.0,10.0,63,0.00,,,0.00,Wunderground v.1.15,2014-02-27 18:04:00,
2014-02-27 12:09:00,-0.5,-10.1,30.25,North,360,8.0,8.0,63,0.00,,,0.00,Wunderground v.1.15,2014-02-27 18:09:00,
2014-02-27 12:14:00,-0.4,-10.0,30.25,NNW,348,7.0,10.0,63,0.00,,,0.00,Wunderground v.1.15,2014-02-27 18:14:00,
2014-02-27 12:19:00,-0.4,-9.7,30.25,NNW,339,6.0,11.0,64,0.00,,,0.00,Wunderground v.1.15,2014-02-27 18:19:00,
2014-02-27 12:24:00,-0.2,-9.5,30.25,NW,321,4.0,8.0,64,0.00,,,0.00,Wunderground v.1.15,2014-02-27 18:24:00,
2014-02-27 12:29:00,-0.1,-10.0,30.25,NW,325,5.0,8.0,62,0.00,,,0.00,Wunderground v.1.15,2014-02-27 18:29:00,
2014-02-27 12:34:00,0.0,-10.3,30.25,NW,319,8.0,9.0,61,0.00,,,0.00,Wunderground v.1.15,2014-02-27 18:34:00,
2014-02-27 12:39:00,0.0,-9.6,30.25,NNW,344,4.0,11.0,63,0.00,,,0.00,Wunderground v.1.15,2014-02-27 18:39:00,
2014-02-27 12:44:00,0.0,-9.9,30.24,NNW,336,5.0,10.0,62,0.00,,,0.00,Wunderground v.1.15,2014-02-27 18:44:00,
2014-02-27 12:49:00,0.2,-9.1,30.24,NNW,332,8.0,10.0,64,0.00,,,0.00,Wunderground v.1.15,2014-02-27 18:49:00,
2014-02-27 12:55:00,0.2,-9.8,30.24,NNW,346,4.0,6.0,62,0.00,,,0.00,Wunderground v.1.15,2014-02-27 18:55:00,
2014-02-27 12:59:00,0.3,-9.3,30.24,North,351,7.0,10.0,63,0.00,,,0.00,Wunderground v.1.15,2014-02-27 18:59:00,
2014-02-27 13:05:00,0.2,-10.1,30.24,NW,313,3.0,9.0,61,0.00,,,0.00,Wunderground v.1.15,2014-02-27 19:05:00,
2014-02-27 13:10:00,0.4,-9.6,30.24,NNW,328,9.0,9.0,62,0.00,,,0.00,Wunderground v.1.15,2014-02-27 19:10:00,
2014-02-27 13:15:00,0.4,-9.9,30.23,NW,304,5.0,8.0,61,0.00,,,0.00,Wunderground v.1.15,2014-02-27 19:15:00,
2014-02-27 13:20:00,0.4,-9.9,30.23,NNW,338,6.0,8.0,61,0.00,,,0.00,Wunderground v.1.15,2014-02-27 19:20:00,
2014-02-27 13:27:00,0.6,-9.7,30.23,NW,305,5.0,5.0,61,0.00,,,0.00,Wunderground v.1.15,2014-02-27 19:27:00,
2014-02-27 13:32:00,0.7,-9.6,30.23,NNW,346,5.0,5.0,61,0.00,,,0.00,Wunderground v.1.15,2014-02-27 19:32:00,
2014-02-27 13:37:00,0.8,-9.2,30.23,NW,326,6.0,8.0,62,0.00,,,0.00,Wunderground v.1.15,2014-02-27 19:37:00,
2014-02-27 13:42:00,0.8,-9.9,30.23,NNW,331,4.0,5.0,60,0.00,,,0.00,Wunderground v.1.15,2014-02-27 19:42:00,
2014-02-27 13:47:00,0.9,-9.4,30.23,NNW,333,5.0,8.0,61,0.00,,,0.00,Wunderground v.1.15,2014-02-27 19:47:00,
2014-02-27 13:52:00,0.9,-9.8,30.23,WNW,289,3.0,4.0,60,0.00,,,0.00,Wunderground v.1.15,2014-02-27 19:52:00,
2014-02-27 13:57:00,1.1,-8.9,30.23,West,275,3.0,6.0,62,0.00,,,0.00,Wunderground v.1.15,2014-02-27 19:57:00,
2014-02-27 14:03:00,1.3,-9.4,30.23,NW,324,5.0,5.0,60,0.00,,,0.00,Wunderground v.1.15,2014-02-27 20:03:00,
2014-02-27 14:08:00,1.3,-9.7,30.23,NNW,328,6.0,7.0,59,0.00,,,0.00,Wunderground v.1.15,2014-02-27 20:08:00,
2014-02-27 14:13:00,1.4,-9.3,30.23,North,360,2.0,4.0,60,0.00,,,0.00,Wunderground v.1.15,2014-02-27 20:13:00,
2014-02-27 14:19:00,1.4,-9.3,30.22,NW,313,4.0,8.0,60,0.00,,,0.00,Wunderground v.1.15,2014-02-27 20:19:00,
2014-02-27 14:24:00,1.5,-9.2,30.23,NW,323,7.0,7.0,60,0.00,,,0.00,Wunderground v.1.15,2014-02-27 20:24:00,
2014-02-27 14:29:00,1.5,-9.2,30.22,NW,320,4.0,8.0,60,0.00,,,0.00,Wunderground v.1.15,2014-02-27 20:29:00,
2014-02-27 14:34:00,1.6,-9.1,30.23,NW,316,4.0,5.0,60,0.00,,,0.00,Wunderground v.1.15,2014-02-27 20:34:00,
2014-02-27 14:39:00,1.6,-9.4,30.22,North,360,4.0,6.0,59,0.00,,,0.00,Wunderground v.1.15,2014-02-27 20:39:00,
2014-02-27 14:44:00,1.6,-9.4,30.23,NNW,337,5.0,7.0,59,0.00,,,0.00,Wunderground v.1.15,2014-02-27 20:44:00,
2014-02-27 14:49:00,1.5,-9.5,30.23,North,355,6.0,7.0,59,0.00,,,0.00,Wunderground v.1.15,2014-02-27 20:49:00,
2014-02-27 14:54:00,1.5,-9.5,30.23,North,355,5.0,8.0,59,0.00,,,0.00,Wunderground v.1.15,2014-02-27 20:54:00,
2014-02-27 14:59:00,1.6,-9.8,30.23,NNW,347,5.0,8.0,58,0.00,,,0.00,Wunderground v.1.15,2014-02-27 20:59:00,
2014-02-27 15:04:00,1.6,-9.1,30.22,NNW,338,7.0,9.0,60,0.00,,,0.00,Wunderground v.1.15,2014-02-27 21:04:00,
2014-02-27 15:09:00,1.6,-9.1,30.22,North,5,5.0,6.0,60,0.00,,,0.00,Wunderground v.1.15,2014-02-27 21:09:00,
2014-02-27 15:14:00,1.7,-9.0,30.22,NNW,341,7.0,8.0,60,0.00,,,0.00,Wunderground v.1.15,2014-02-27 21:14:00,
2014-02-27 15:19:00,1.8,-8.9,30.23,NNW,337,6.0,9.0,60,0.00,,,0.00,Wunderground v.1.15,2014-02-27 21:19:00,
2014-02-27 15:25:00,1.7,-9.3,30.22,NNW,343,4.0,6.0,59,0.00,,,0.00,Wunderground v.1.15,2014-02-27 21:25:00,
2014-02-27 15:30:00,1.8,-8.6,30.22,North,350,7.0,10.0,61,0.00,,,0.00,Wunderground v.1.15,2014-02-27 21:30:00,
2014-02-27 15:35:00,2.0,-8.4,30.22,NW,317,5.0,6.0,61,0.00,,,0.00,Wunderground v.1.15,2014-02-27 21:35:00,
2014-02-27 15:40:00,2.1,-8.3,30.22,NNW,327,6.0,8.0,61,0.00,,,0.00,Wunderground v.1.15,2014-02-27 21:40:00,
2014-02-27 15:45:00,2.1,-8.3,30.22,North,351,4.0,7.0,61,0.00,,,0.00,Wunderground v.1.15,2014-02-27 21:45:00,
2014-02-27 15:50:00,2.0,-8.7,30.22,NNW,348,7.0,7.0,60,0.00,,,0.00,Wunderground v.1.15,2014-02-27 21:50:00,
2014-02-27 15:55:00,2.0,-9.1,30.22,NW,323,4.0,7.0,59,0.00,,,0.00,Wunderground v.1.15,2014-02-27 21:55:00,
2014-02-27 16:00:00,2.2,-8.5,30.22,NW,325,4.0,5.0,60,0.00,,,0.00,Wunderground v.1.15,2014-02-27 22:00:00,
2014-02-27 16:05:00,2.2,-8.9,30.22,NNW,346,3.0,6.0,59,0.00,,,0.00,Wunderground v.1.15,2014-02-27 22:05:00,
2014-02-27 16:10:00,2.2,-8.9,30.22,NNW,333,2.0,6.0,59,0.00,,,0.00,Wunderground v.1.15,2014-02-27 22:10:00,
2014-02-27 16:15:00,2.2,-8.5,30.21,North,360,4.0,6.0,60,0.00,,,0.00,Wunderground v.1.15,2014-02-27 22:15:00,
2014-02-27 16:20:00,2.2,-8.5,30.21,NNW,338,6.0,7.0,60,0.00,,,0.00,Wunderground v.1.15,2014-02-27 22:20:00,
2014-02-27 16:25:00,2.1,-8.6,30.21,North,355,3.0,6.0,60,0.00,,,0.00,Wunderground v.1.15,2014-02-27 22:25:00,
2014-02-27 16:30:00,2.2,-8.9,30.21,North,355,4.0,6.0,59,0.00,,,0.00,Wunderground v.1.15,2014-02-27 22:30:00,
2014-02-27 16:35:00,2.3,-8.8,30.21,NNW,344,3.0,6.0,59,0.00,,,0.00,Wunderground v.1.15,2014-02-27 22:35:00,
2014-02-27 16:40:00,2.3,-8.8,30.20,North,349,5.0,6.0,59,0.00,,,0.00,Wunderground v.1.15,2014-02-27 22:40:00,
2014-02-27 16:45:00,2.2,-9.2,30.20,North,360,3.0,5.0,58,0.00,,,0.00,Wunderground v.1.15,2014-02-27 22:45:00,
2014-02-27 16:50:00,2.1,-9.3,30.20,North,355,3.0,5.0,58,0.00,,,0.00,Wunderground v.1.15,2014-02-27 22:50:00,
2014-02-27 16:56:00,2.1,-9.3,30.20,North,360,3.0,5.0,58,0.00,,,0.00,Wunderground v.1.15,2014-02-27 22:56:00,
2014-02-27 17:02:00,2.1,-9.3,30.20,NNW,348,3.0,3.0,58,0.00,,,0.00,Wunderground v.1.15,2014-02-27 23:02:00,
2014-02-27 17:08:00,2.1,-9.3,30.20,North,360,5.0,5.0,58,0.00,,,0.00,Wunderground v.1.15,2014-02-27 23:08:00,
2014-02-27 17:13:00,2.1,-9.7,30.21,North,5,2.0,3.0,57,0.00,,,0.00,Wunderground v.1.15,2014-02-27 23:13:00,
2014-02-27 17:18:00,2.1,-10.0,30.20,North,355,4.0,5.0,56,0.00,,,0.00,Wunderground v.1.15,2014-02-27 23:18:00,
2014-02-27 17:23:00,1.9,-9.9,30.21,North,355,3.0,4.0,57,0.00,,,0.00,Wunderground v.1.15,2014-02-27 23:23:00,
2014-02-27 17:28:00,1.8,-10.0,30.20,North,355,1.0,4.0,57,0.00,,,0.00,Wunderground v.1.15,2014-02-27 23:28:00,
2014-02-27 17:33:00,1.8,-10.0,30.21,North,355,1.0,2.0,57,0.00,,,0.00,Wunderground v.1.15,2014-02-27 23:33:00,
2014-02-27 17:38:00,1.7,-9.7,30.20,North,355,2.0,3.0,58,0.00,,,0.00,Wunderground v.1.15,2014-02-27 23:38:00,
2014-02-27 17:44:00,1.5,-8.9,30.20,North,350,3.0,3.0,61,0.00,,,0.00,Wunderground v.1.15,2014-02-27 23:44:00,
2014-02-27 17:49:00,1.2,-8.8,30.20,North,5,2.0,3.0,62,0.00,,,0.00,Wunderground v.1.15,2014-02-27 23:49:00,
2014-02-27 17:54:00,0.9,-8.8,30.20,North,5,0.0,1.0,63,0.00,,,0.00,Wunderground v.1.15,2014-02-27 23:54:00,
2014-02-27 17:59:00,0.7,-9.0,30.21,North,5,0.0,1.0,63,0.00,,,0.00,Wunderground v.1.15,2014-02-27 23:59:00,
2014-02-27 18:04:00,0.4,-9.2,30.20,North,5,0.0,0.0,63,0.00,,,0.00,Wunderground v.1.15,2014-02-28 00:04:00,
2014-02-27 18:09:00,0.1,-9.2,30.20,North,5,0.0,0.0,64,0.00,,,0.00,Wunderground v.1.15,2014-02-28 00:09:00,
2014-02-27 18:14:00,-0.1,-9.4,30.20,North,5,0.0,0.0,64,0.00,,,0.00,Wunderground v.1.15,2014-02-28 00:14:00,
2014-02-27 18:20:00,-0.3,-9.6,30.21,North,5,0.0,1.0,64,0.00,,,0.00,Wunderground v.1.15,2014-02-28 00:20:00,
2014-02-27 18:25:00,-0.5,-9.5,30.21,North,5,0.0,0.0,65,0.00,,,0.00,Wunderground v.1.15,2014-02-28 00:25:00,
2014-02-27 18:30:00,-0.6,-9.6,30.21,North,5,0.0,1.0,65,0.00,,,0.00,Wunderground v.1.15,2014-02-28 00:30:00,
2014-02-27 18:35:00,-0.7,-9.7,30.21,North,5,0.0,0.0,65,0.00,,,0.00,Wunderground v.1.15,2014-02-28 00:35:00,
2014-02-27 18:40:00,-0.8,-9.4,30.21,North,5,0.0,0.0,66,0.00,,,0.00,Wunderground v.1.15,2014-02-28 00:40:00,
2014-02-27 18:45:00,-1.0,-9.6,30.21,North,5,0.0,0.0,66,0.00,,,0.00,Wunderground v.1.15,2014-02-28 00:45:00,
2014-02-27 18:50:00,-1.0,-9.6,30.21,North,5,0.0,0.0,66,0.00,,,0.00,Wunderground v.1.15,2014-02-28 00:50:00,
2014-02-27 18:55:00,-1.1,-9.4,30.21,North,5,0.0,1.0,67,0.00,,,0.00,Wunderground v.1.15,2014-02-28 00:55:00,
2014-02-27 19:00:00,-1.1,-9.4,30.21,North,5,0.0,0.0,67,0.00,,,0.00,Wunderground v.1.15,2014-02-28 01:00:00,
2014-02-27 19:05:00,-1.1,-9.4,30.21,North,5,0.0,0.0,67,0.00,,,0.00,Wunderground v.1.15,2014-02-28 01:05:00,
2014-02-27 19:10:00,-1.2,-9.8,30.21,North,5,0.0,0.0,66,0.00,,,0.00,Wunderground v.1.15,2014-02-28 01:10:00,
2014-02-27 19:15:00,-1.3,-9.6,30.21,North,5,0.0,0.0,67,0.00,,,0.00,Wunderground v.1.15,2014-02-28 01:15:00,
2014-02-27 19:20:00,-1.5,-9.8,30.21,North,5,0.0,0.0,67,0.00,,,0.00,Wunderground v.1.15,2014-02-28 01:20:00,
2014-02-27 19:25:00,-1.5,-9.8,30.21,North,5,1.0,1.0,67,0.00,,,0.00,Wunderground v.1.15,2014-02-28 01:25:00,
2014-02-27 19:30:00,-1.6,-9.9,30.21,North,5,0.0,1.0,67,0.00,,,0.00,Wunderground v.1.15,2014-02-28 01:30:00,
2014-02-27 19:36:00,-1.6,-9.9,30.21,North,5,0.0,1.0,67,0.00,,,0.00,Wunderground v.1.15,2014-02-28 01:36:00,
2014-02-27 19:41:00,-1.7,-10.0,30.21,North,5,0.0,1.0,67,0.00,,,0.00,Wunderground v.1.15,2014-02-28 01:41:00,
2014-02-27 19:46:00,-1.7,-10.0,30.22,North,5,0.0,0.0,67,0.00,,,0.00,Wunderground v.1.15,2014-02-28 01:46:00,
2014-02-27 19:53:00,-1.8,-9.8,30.22,North,5,0.0,0.0,68,0.00,,,0.00,Wunderground v.1.15,2014-02-28 01:53:00,
2014-02-27 19:58:00,-1.9,-9.9,30.22,North,5,0.0,0.0,68,0.00,,,0.00,Wunderground v.1.15,2014-02-28 01:58:00,
2014-02-27 20:03:00,-2.0,-10.0,30.22,North,5,0.0,0.0,68,0.00,,,0.00,Wunderground v.1.15,2014-02-28 02:03:00,
2014-02-27 20:08:00,-2.1,-10.1,30.21,North,5,0.0,1.0,68,0.00,,,0.00,Wunderground v.1.15,2014-02-28 02:08:00,
2014-02-27 20:13:00,-2.0,-10.0,30.21,North,5,0.0,0.0,68,0.00,,,0.00,Wunderground v.1.15,2014-02-28 02:13:00,
2014-02-27 20:18:00,-2.0,-10.0,30.21,North,11,0.0,1.0,68,0.00,,,0.00,Wunderground v.1.15,2014-02-28 02:18:00,
2014-02-27 20:23:00,-2.0,-10.0,30.21,North,10,0.0,0.0,68,0.00,,,0.00,Wunderground v.1.15,2014-02-28 02:23:00,
2014-02-27 20:28:00,-2.1,-10.4,30.21,North,10,0.0,0.0,67,0.00,,,0.00,Wunderground v.1.15,2014-02-28 02:28:00,
2014-02-27 20:34:00,-2.2,-10.2,30.21,North,10,0.0,0.0,68,0.00,,,0.00,Wunderground v.1.15,2014-02-28 02:34:00,
2014-02-27 20:38:00,-2.3,-10.3,30.21,North,10,0.0,1.0,68,0.00,,,0.00,Wunderground v.1.15,2014-02-28 02:38:00,
2014-02-27 20:44:00,-2.4,-10.4,30.21,NNE,13,1.0,1.0,68,0.00,,,0.00,Wunderground v.1.15,2014-02-28 02:44:00,
2014-02-27 20:49:00,-2.4,-10.4,30.21,NNE,23,1.0,2.0,68,0.00,,,0.00,Wunderground v.1.15,2014-02-28 02:49:00,
2014-02-27 20:54:00,-2.4,-10.1,30.21,NE,46,1.0,2.0,69,0.00,,,0.00,Wunderground v.1.15,2014-02-28 02:54:00,
2014-02-27 20:59:00,-2.5,-10.2,30.21,NE,50,1.0,2.0,69,0.00,,,0.00,Wunderground v.1.15,2014-02-28 02:59:00,
2014-02-27 21:04:00,-2.5,-10.2,30.22,NE,52,0.0,1.0,69,0.00,,,0.00,Wunderground v.1.15,2014-02-28 03:04:00,
2014-02-27 21:09:00,-2.6,-10.3,30.22,NE,52,0.0,1.0,69,0.00,,,0.00,Wunderground v.1.15,2014-02-28 03:09:00,
2014-02-27 21:14:00,-2.7,-10.4,30.22,NE,52,0.0,1.0,69,0.00,,,0.00,Wunderground v.1.15,2014-02-28 03:14:00,
2014-02-27 21:19:00,-2.8,-10.2,30.22,NE,52,0.0,2.0,70,0.00,,,0.00,Wunderground v.1.15,2014-02-28 03:19:00,
2014-02-27 21:24:00,-2.8,-10.2,30.22,NE,55,1.0,2.0,70,0.00,,,0.00,Wunderground v.1.15,2014-02-28 03:24:00,
2014-02-27 21:29:00,-2.8,-10.2,30.21,NE,56,1.0,2.0,70,0.00,,,0.00,Wunderground v.1.15,2014-02-28 03:29:00,
2014-02-27 21:34:00,-3.0,-10.4,30.21,NE,56,1.0,1.0,70,0.00,,,0.00,Wunderground v.1.15,2014-02-28 03:34:00,
2014-02-27 21:39:00,-3.2,-10.6,30.22,NE,56,1.0,2.0,70,0.00,,,0.00,Wunderground v.1.15,2014-02-28 03:39:00,
2014-02-27 21:44:00,-3.4,-10.5,30.22,NE,56,1.0,1.0,71,0.00,,,0.00,Wunderground v.1.15,2014-02-28 03:44:00,
2014-02-27 21:50:00,-3.6,-10.7,30.22,NE,56,0.0,1.0,71,0.00,,,0.00,Wunderground v.1.15,2014-02-28 03:50:00,
2014-02-27 21:55:00,-3.7,-10.5,30.21,NE,56,0.0,0.0,72,0.00,,,0.00,Wunderground v.1.15,2014-02-28 03:55:00,
2014-02-27 22:00:00,-3.9,-10.7,30.21,NE,56,0.0,0.0,72,0.00,,,0.00,Wunderground v.1.15,2014-02-28 04:00:00,
2014-02-27 22:06:00,-4.0,-10.5,30.20,ENE,57,1.0,2.0,73,0.00,,,0.00,Wunderground v.1.15,2014-02-28 04:06:00,
2014-02-27 22:13:00,-4.0,-10.5,30.20,ENE,57,1.0,1.0,73,0.00,,,0.00,Wunderground v.1.15,2014-02-28 04:13:00,
2014-02-27 22:19:00,-4.0,-10.5,30.20,ENE,71,2.0,2.0,73,0.00,,,0.00,Wunderground v.1.15,2014-02-28 04:19:00,
2014-02-27 22:25:00,-3.9,-10.4,30.19,East,79,2.0,3.0,73,0.00,,,0.00,Wunderground v.1.15,2014-02-28 04:25:00,
2014-02-27 22:33:00,-3.9,-10.4,30.20,East,82,1.0,1.0,73,0.00,,,0.00,Wunderground v.1.15,2014-02-28 04:33:00,
2014-02-27 22:43:00,-4.2,-10.7,30.20,East,82,2.0,2.0,73,0.00,,,0.00,Wunderground v.1.15,2014-02-28 04:43:00,
2014-02-27 22:48:00,-4.4,-10.9,30.20,East,82,1.0,2.0,73,0.00,,,0.00,Wunderground v.1.15,2014-02-28 04:48:00,
2014-02-27 22:53:00,-4.6,-11.1,30.20,East,83,1.0,2.0,73,0.00,,,0.00,Wunderground v.1.15,2014-02-28 04:53:00,
2014-02-27 22:58:00,-4.8,-11.3,30.20,East,83,2.0,2.0,73,0.00,,,0.00,Wunderground v.1.15,2014-02-28 04:58:00,
2014-02-27 23:01:00,-5.0,-11.2,30.19,East,83,1.0,1.0,74,0.00,,,0.00,Wunderground v.1.15,2014-02-28 05:01:00,
2014-02-27 23:03:00,-5.1,-11.3,30.19,East,83,2.0,2.0,74,0.00,,,0.00,Wunderground v.1.15,2014-02-28 05:03:00,
2014-02-27 23:04:00,-5.1,-11.3,30.20,East,83,1.0,2.0,74,0.00,,,0.00,Wunderground v.1.15,2014-02-28 05:04:00,
2014-02-27 23:10:00,-5.2,-11.1,30.19,East,83,2.0,2.0,75,0.00,,,0.00,Wunderground v.1.15,2014-02-28 05:10:00,
2014-02-27 23:15:00,-5.2,-11.1,30.19,East,84,2.0,2.0,75,0.00,,,0.00,Wunderground v.1.15,2014-02-28 05:15:00,
2014-02-27 23:20:00,-5.2,-11.1,30.19,East,83,2.0,2.0,75,0.00,,,0.00,Wunderground v.1.15,2014-02-28 05:20:00,
2014-02-27 23:25:00,-5.2,-11.1,30.19,East,82,1.0,2.0,75,0.00,,,0.00,Wunderground v.1.15,2014-02-28 05:25:00,
2014-02-27 23:34:00,-4.8,-10.7,30.19,East,83,0.0,1.0,75,0.00,,,0.00,Wunderground v.1.15,2014-02-28 05:34:00,
2014-02-27 23:39:00,-4.6,-10.5,30.18,East,85,1.0,2.0,75,0.00,,,0.00,Wunderground v.1.15,2014-02-28 05:39:00,
2014-02-27 23:44:00,-4.5,-10.7,30.18,East,88,2.0,2.0,74,0.00,,,0.00,Wunderground v.1.15,2014-02-28 05:44:00,
2014-02-27 23:53:00,-4.0,-10.2,30.18,East,97,1.0,2.0,74,0.00,,,0.00,Wunderground v.1.15,2014-02-28 05:53:00,